Time,TemperatureF,DewpointF,PressureIn,WindDirection,WindDirectionDegrees,WindSpeedMPH,WindSpeedGustMPH,Humidity,HourlyPrecipIn,Conditions,Clouds,dailyrainin,SoftwareType,DateUTC
2013-03-06 00:00:00,24.6,20.5,30.00,ENE,60,0.0,1.2,84,0.00,RA,,0.06,WeatherDisplay:10.37,2013-03-06 05:00:00,
2013-03-06 00:05:00,24.5,20.4,30.00,ENE,77,0.6,1.2,84,0.00,RA,,0.00,WeatherDisplay:10.37,2013-03-06 05:05:00,
2013-03-06 00:10:00,24.3,20.2,30.00,ENE,77,0.0,1.2,84,0.00,,,0.00,WeatherDisplay:10.37,2013-03-06 05:10:00,
2013-03-06 00:15:00,23.9,19.8,29.99,ENE,77,0.0,1.2,84,0.00,,,0.00,WeatherDisplay:10.37,2013-03-06 05:15:00,
2013-03-06 00:20:00,23.6,19.8,30.00,ENE,76,0.0,1.2,85,0.00,,,0.00,WeatherDisplay:10.37,2013-03-06 05:20:00,
2013-03-06 00:25:00,23.3,19.5,29.99,ENE,77,0.0,1.2,85,0.00,,,0.00,WeatherDisplay:10.37,2013-03-06 05:25:00,
2013-03-06 00:30:00,23.0,19.4,29.99,ENE,77,0.0,1.2,86,0.00,,,0.00,WeatherDisplay:10.37,2013-03-06 05:30:00,
2013-03-06 00:35:00,23.1,19.5,30.00,East,79,0.3,1.2,86,0.00,,,0.00,WeatherDisplay:10.37,2013-03-06 05:35:00,
2013-03-06 00:40:00,23.2,19.6,29.99,East,101,0.5,1.2,86,0.00,,,0.00,WeatherDisplay:10.37,2013-03-06 05:40:00,
2013-03-06 00:45:00,23.2,19.6,30.00,East,101,0.2,1.2,86,0.00,,,0.00,WeatherDisplay:10.37,2013-03-06 05:45:00,
2013-03-06 00:50:00,23.0,19.2,30.00,South,174,0.0,1.2,85,0.00,,,0.00,WeatherDisplay:10.37,2013-03-06 05:50:00,
2013-03-06 00:55:00,22.6,19.0,30.00,South,169,0.0,1.2,86,0.00,,,0.00,WeatherDisplay:10.37,2013-03-06 05:55:00,
2013-03-06 01:00:00,22.2,18.7,30.00,South,169,0.0,1.2,86,0.00,,,0.00,WeatherDisplay:10.37,2013-03-06 06:00:00,
2013-03-06 01:05:00,21.9,18.6,30.00,South,169,0.0,1.2,87,0.00,,,0.00,WeatherDisplay:10.37,2013-03-06 06:05:00,
2013-03-06 01:10:00,21.9,18.9,30.00,South,169,0.0,1.2,88,0.00,,,0.00,WeatherDisplay:10.37,2013-03-06 06:10:00,
2013-03-06 01:15:00,21.8,18.5,30.00,South,169,0.0,1.2,87,0.00,,,0.00,WeatherDisplay:10.37,2013-03-06 06:15:00,
2013-03-06 01:20:00,21.9,18.9,30.00,ESE,105,0.2,1.2,88,0.00,,,0.00,WeatherDisplay:10.37,2013-03-06 06:20:00,
2013-03-06 01:25:00,22.0,19.0,29.99,East,95,0.0,2.3,88,0.00,,,0.00,WeatherDisplay:10.37,2013-03-06 06:25:00,
2013-03-06 01:30:00,22.0,19.0,30.00,East,95,0.0,2.3,88,0.00,,,0.00,WeatherDisplay:10.37,2013-03-06 06:30:00,
2013-03-06 01:35:00,22.0,19.0,30.00,ENE,65,1.3,3.0,88,0.00,,,0.00,WeatherDisplay:10.37,2013-03-06 06:35:00,
2013-03-06 01:40:00,22.6,19.6,30.00,East,94,0.5,3.5,88,0.00,,,0.00,WeatherDisplay:10.37,2013-03-06 06:40:00,
2013-03-06 01:45:00,23.0,20.0,29.99,ENE,76,0.8,3.5,88,0.00,,,0.00,WeatherDisplay:10.37,2013-03-06 06:45:00,
2013-03-06 01:50:00,23.3,20.0,29.99,East,85,0.9,3.5,87,0.00,,,0.00,WeatherDisplay:10.37,2013-03-06 06:50:00,
2013-03-06 01:55:00,23.7,20.4,29.99,East,82,0.0,3.5,87,0.00,,,0.00,WeatherDisplay:10.37,2013-03-06 06:55:00,
2013-03-06 02:00:00,23.9,20.3,29.99,ENE,75,0.5,3.5,86,0.00,,,0.00,WeatherDisplay:10.37,2013-03-06 07:00:00,
2013-03-06 02:05:00,24.1,20.5,29.99,East,82,1.3,3.5,86,0.00,,,0.00,WeatherDisplay:10.37,2013-03-06 07:05:00,
2013-03-06 02:10:00,24.3,20.7,29.99,ENE,59,1.2,3.5,86,0.00,,,0.00,WeatherDisplay:10.37,2013-03-06 07:10:00,
2013-03-06 02:15:00,24.7,21.1,29.99,ENE,68,2.2,4.0,86,0.00,,,0.00,WeatherDisplay:10.37,2013-03-06 07:15:00,
2013-03-06 02:20:00,25.0,21.1,29.99,ENE,71,1.3,6.0,85,0.00,,,0.00,WeatherDisplay:10.37,2013-03-06 07:20:00,
2013-03-06 02:25:00,25.1,21.2,29.99,East,87,2.6,6.0,85,0.00,,,0.00,WeatherDisplay:10.37,2013-03-06 07:25:00,
2013-03-06 02:30:00,25.1,21.2,29.99,ENE,74,2.3,6.0,85,0.00,,,0.00,WeatherDisplay:10.37,2013-03-06 07:30:00,
2013-03-06 02:35:00,25.1,21.2,29.99,ENE,75,0.8,6.0,85,0.00,,,0.00,WeatherDisplay:10.37,2013-03-06 07:35:00,
2013-03-06 02:40:00,24.8,20.9,29.99,NE,54,1.8,6.0,85,0.00,,,0.00,WeatherDisplay:10.37,2013-03-06 07:40:00,
2013-03-06 02:45:00,24.7,20.8,29.99,East,91,1.2,6.0,85,0.00,,,0.00,WeatherDisplay:10.37,2013-03-06 07:45:00,
2013-03-06 02:50:00,24.6,21.0,29.99,East,84,2.0,6.0,86,0.00,,,0.00,WeatherDisplay:10.37,2013-03-06 07:50:00,
2013-03-06 02:55:00,24.7,20.8,29.99,NE,55,1.4,6.0,85,0.00,,,0.00,WeatherDisplay:10.37,2013-03-06 07:55:00,
2013-03-06 03:00:00,24.6,20.7,29.99,ENE,63,1.9,6.0,85,0.00,,,0.00,WeatherDisplay:10.37,2013-03-06 08:00:00,
2013-03-06 03:05:00,24.6,20.7,29.99,ENE,59,2.0,6.0,85,0.00,,,0.00,WeatherDisplay:10.37,2013-03-06 08:05:00,
2013-03-06 03:10:00,24.5,20.6,29.99,NE,49,1.6,6.0,85,0.00,,,0.00,WeatherDisplay:10.37,2013-03-06 08:10:00,
2013-03-06 03:15:00,24.4,20.8,29.99,NE,49,1.0,6.0,86,0.00,,,0.00,WeatherDisplay:10.37,2013-03-06 08:15:00,
2013-03-06 03:20:00,24.2,20.6,29.99,ENE,75,0.6,6.0,86,0.00,,,0.00,WeatherDisplay:10.37,2013-03-06 08:20:00,
2013-03-06 03:25:00,24.2,20.6,29.99,East,88,0.5,6.0,86,0.00,,,0.00,WeatherDisplay:10.37,2013-03-06 08:25:00,
2013-03-06 03:30:00,24.1,20.5,29.99,ESE,108,1.0,6.0,86,0.00,,,0.00,WeatherDisplay:10.37,2013-03-06 08:30:00,
2013-03-06 03:35:00,24.0,20.4,29.99,East,92,0.9,6.0,86,0.00,,,0.00,WeatherDisplay:10.37,2013-03-06 08:35:00,
2013-03-06 03:40:00,23.9,20.3,29.99,East,90,0.2,6.0,86,0.00,,,0.00,WeatherDisplay:10.37,2013-03-06 08:40:00,
2013-03-06 03:45:00,23.7,20.4,29.99,ENE,59,1.3,6.0,87,0.00,,,0.00,WeatherDisplay:10.37,2013-03-06 08:45:00,
2013-03-06 03:50:00,23.5,20.2,29.99,ENE,72,0.6,6.0,87,0.00,,,0.00,WeatherDisplay:10.37,2013-03-06 08:50:00,
2013-03-06 03:55:00,23.3,20.0,29.99,ENE,72,0.0,6.0,87,0.00,,,0.00,WeatherDisplay:10.37,2013-03-06 08:55:00,
2013-03-06 04:00:00,23.2,20.2,29.99,ENE,73,0.2,6.0,88,0.00,,,0.00,WeatherDisplay:10.37,2013-03-06 09:00:00,
2013-03-06 04:05:00,23.0,19.7,29.99,ENE,73,0.0,6.0,87,0.00,,,0.00,WeatherDisplay:10.37,2013-03-06 09:05:00,
2013-03-06 04:10:00,23.0,20.0,29.99,ESE,107,0.0,6.0,88,0.00,,,0.00,WeatherDisplay:10.37,2013-03-06 09:10:00,
2013-03-06 04:15:00,23.0,20.0,29.99,East,88,0.0,6.0,88,0.00,,,0.00,WeatherDisplay:10.37,2013-03-06 09:15:00,
2013-03-06 04:20:00,23.0,20.0,30.00,East,89,0.0,6.0,88,0.00,,,0.00,WeatherDisplay:10.37,2013-03-06 09:20:00,
2013-03-06 04:25:00,22.9,19.9,29.99,ESE,105,0.0,6.0,88,0.00,,,0.00,WeatherDisplay:10.37,2013-03-06 09:25:00,
2013-03-06 04:34:00,22.5,19.7,29.99,ESE,105,0.0,6.0,89,0.00,,,0.00,WeatherDisplay:10.37,2013-03-06 09:34:00,
2013-03-06 04:39:00,22.2,19.2,29.99,ESE,105,0.0,6.0,88,0.00,,,0.00,WeatherDisplay:10.37,2013-03-06 09:39:00,
2013-03-06 04:44:00,21.9,19.2,30.00,ESE,106,0.0,6.0,89,0.00,,,0.00,WeatherDisplay:10.37,2013-03-06 09:44:00,
2013-03-06 04:49:00,21.8,19.3,30.00,ESE,105,0.0,6.0,90,0.00,,,0.00,WeatherDisplay:10.37,2013-03-06 09:49:00,
2013-03-06 04:54:00,22.0,19.5,30.00,ESE,105,0.0,6.0,90,0.00,,,0.00,WeatherDisplay:10.37,2013-03-06 09:54:00,
2013-03-06 04:59:00,22.1,19.6,30.00,ESE,106,0.0,6.0,90,0.00,,,0.00,WeatherDisplay:10.37,2013-03-06 09:59:00,
2013-03-06 05:04:00,22.1,19.6,30.00,ESE,106,0.0,6.0,90,0.00,,,0.00,WeatherDisplay:10.37,2013-03-06 10:04:00,
2013-03-06 05:09:00,22.5,20.3,30.00,ESE,103,0.0,6.0,91,0.00,,,0.00,WeatherDisplay:10.37,2013-03-06 10:09:00,
2013-03-06 05:14:00,22.9,20.4,30.01,ESE,103,0.0,6.0,90,0.00,,,0.00,WeatherDisplay:10.37,2013-03-06 10:14:00,
2013-03-06 05:19:00,23.0,20.5,30.01,ESE,103,0.0,6.0,90,0.00,,,0.00,WeatherDisplay:10.37,2013-03-06 10:19:00,
2013-03-06 05:24:00,23.0,20.5,30.01,ESE,103,0.0,6.0,90,0.00,,,0.00,WeatherDisplay:10.37,2013-03-06 10:24:00,
2013-03-06 05:29:00,23.2,20.7,30.01,ESE,103,0.0,6.0,90,0.00,,,0.00,WeatherDisplay:10.37,2013-03-06 10:29:00,
2013-03-06 05:34:00,23.4,20.9,30.01,ESE,103,0.0,6.0,90,0.00,,,0.00,WeatherDisplay:10.37,2013-03-06 10:34:00,
2013-03-06 05:39:00,23.7,21.2,30.01,SE,131,0.0,6.0,90,0.00,,,0.00,WeatherDisplay:10.37,2013-03-06 10:39:00,
2013-03-06 05:44:00,24.0,21.5,30.02,SE,131,0.0,6.0,90,0.00,,,0.00,WeatherDisplay:10.37,2013-03-06 10:44:00,
2013-03-06 05:49:00,24.4,21.9,30.02,SE,131,0.0,6.0,90,0.00,,,0.00,WeatherDisplay:10.37,2013-03-06 10:49:00,
2013-03-06 05:54:00,24.6,21.8,30.02,East,94,0.0,6.0,89,0.00,,,0.00,WeatherDisplay:10.37,2013-03-06 10:54:00,
2013-03-06 05:59:00,24.9,22.1,30.02,East,94,0.0,6.0,89,0.00,,,0.00,WeatherDisplay:10.37,2013-03-06 10:59:00,
2013-03-06 06:04:00,25.1,22.0,30.02,ENE,63,1.5,6.0,88,0.00,,,0.00,WeatherDisplay:10.37,2013-03-06 11:04:00,
2013-03-06 06:09:00,25.3,22.2,30.03,ENE,66,0.0,6.0,88,0.00,,,0.00,WeatherDisplay:10.37,2013-03-06 11:09:00,
2013-03-06 06:14:00,25.3,22.2,30.03,ENE,65,0.0,6.0,88,0.00,,,0.00,WeatherDisplay:10.37,2013-03-06 11:14:00,
2013-03-06 06:19:00,25.4,22.3,30.03,ENE,65,0.0,6.0,88,0.00,,,0.00,WeatherDisplay:10.37,2013-03-06 11:19:00,
2013-03-06 06:24:00,25.4,22.3,30.03,ENE,65,0.0,6.0,88,0.00,,,0.00,WeatherDisplay:10.37,2013-03-06 11:24:00,
2013-03-06 06:29:00,25.5,22.2,30.03,ENE,65,0.0,6.0,87,0.00,,,0.00,WeatherDisplay:10.37,2013-03-06 11:29:00,
2013-03-06 06:34:00,25.4,22.1,30.04,ENE,65,0.0,6.0,87,0.00,,,0.00,WeatherDisplay:10.37,2013-03-06 11:34:00,
2013-03-06 06:39:00,25.4,22.3,30.04,ENE,65,0.0,6.0,88,0.00,,,0.00,WeatherDisplay:10.37,2013-03-06 11:39:00,
2013-03-06 06:44:00,25.4,22.3,30.04,ENE,65,0.0,6.0,88,0.00,,,0.00,WeatherDisplay:10.37,2013-03-06 11:44:00,
2013-03-06 06:49:00,25.3,22.2,30.04,ENE,65,0.0,6.0,88,0.00,,,0.00,WeatherDisplay:10.37,2013-03-06 11:49:00,
2013-03-06 06:54:00,25.4,22.3,30.05,ENE,65,0.0,6.0,88,0.00,,,0.00,WeatherDisplay:10.37,2013-03-06 11:54:00,
2013-03-06 06:59:00,25.5,22.7,30.05,ENE,65,0.0,6.0,89,0.00,,,0.00,WeatherDisplay:10.37,2013-03-06 11:59:00,
2013-03-06 07:04:00,25.7,22.9,30.05,ENE,65,0.0,6.0,89,0.00,CLR,,0.00,WeatherDisplay:10.37,2013-03-06 12:04:00,
2013-03-06 07:09:00,25.8,23.0,30.05,ENE,65,0.0,6.0,89,0.00,CLR,,0.00,WeatherDisplay:10.37,2013-03-06 12:09:00,
2013-03-06 07:14:00,26.0,23.2,30.05,ENE,65,0.0,6.0,89,0.00,CLR,,0.00,WeatherDisplay:10.37,2013-03-06 12:14:00,
2013-03-06 07:19:00,26.1,23.0,30.06,ENE,65,0.0,6.0,88,0.00,CLR,,0.00,WeatherDisplay:10.37,2013-03-06 12:19:00,
2013-03-06 07:24:00,26.2,23.1,30.06,ENE,65,0.0,6.0,88,0.00,CLR,,0.00,WeatherDisplay:10.37,2013-03-06 12:24:00,
2013-03-06 07:29:00,26.3,23.2,30.06,ENE,65,0.0,6.0,88,0.00,CLR,,0.00,WeatherDisplay:10.37,2013-03-06 12:29:00,
2013-03-06 07:34:00,26.5,23.4,30.06,ENE,65,0.0,6.0,88,0.00,CLR,,0.00,WeatherDisplay:10.37,2013-03-06 12:34:00,
2013-03-06 07:39:00,26.7,23.6,30.06,ENE,65,0.0,6.0,88,0.00,CLR,,0.00,WeatherDisplay:10.37,2013-03-06 12:39:00,
2013-03-06 07:44:00,27.0,23.9,30.06,ENE,65,0.0,6.0,88,0.00,CLR,,0.00,WeatherDisplay:10.37,2013-03-06 12:44:00,
2013-03-06 07:49:00,27.3,24.2,30.07,ENE,65,0.0,6.0,88,0.00,CLR,,0.00,WeatherDisplay:10.37,2013-03-06 12:49:00,
2013-03-06 07:54:00,27.6,24.5,30.07,ENE,65,0.0,6.0,88,0.00,CLR,,0.00,WeatherDisplay:10.37,2013-03-06 12:54:00,
2013-03-06 07:59:00,27.9,24.5,30.07,ENE,65,0.0,6.0,87,0.00,CLR,,0.00,WeatherDisplay:10.37,2013-03-06 12:59:00,
2013-03-06 08:04:00,28.2,24.8,30.07,ENE,65,0.0,6.0,87,0.00,CLR,,0.00,WeatherDisplay:10.37,2013-03-06 13:04:00,
2013-03-06 08:09:00,28.7,25.3,30.07,ENE,65,0.0,6.0,87,0.00,CLR,,0.00,WeatherDisplay:10.37,2013-03-06 13:09:00,
2013-03-06 08:14:00,29.4,25.7,30.08,ENE,62,0.2,6.0,86,0.00,CLR,,0.00,WeatherDisplay:10.37,2013-03-06 13:14:00,
2013-03-06 08:19:00,30.2,26.2,30.08,ENE,72,0.4,6.0,85,0.00,CLR,,0.00,WeatherDisplay:10.37,2013-03-06 13:19:00,
2013-03-06 08:24:00,30.9,26.6,30.08,ENE,65,0.0,6.0,84,0.00,CLR,,0.00,WeatherDisplay:10.37,2013-03-06 13:24:00,
2013-03-06 08:29:00,31.4,26.8,30.08,NNE,32,0.9,6.0,83,0.00,CLR,,0.00,WeatherDisplay:10.37,2013-03-06 13:29:00,
2013-03-06 08:34:00,31.7,27.1,30.08,NNE,32,0.0,6.0,83,0.00,CLR,,0.00,WeatherDisplay:10.37,2013-03-06 13:34:00,
2013-03-06 08:39:00,31.9,27.0,30.08,NE,40,0.0,6.0,82,0.00,CLR,,0.00,WeatherDisplay:10.37,2013-03-06 13:39:00,
2013-03-06 08:44:00,32.1,26.9,30.08,ENE,68,0.8,6.0,81,0.00,CLR,,0.00,WeatherDisplay:10.37,2013-03-06 13:44:00,
2013-03-06 08:49:00,32.4,27.2,30.08,ENE,75,3.0,6.0,81,0.00,CLR,,0.00,WeatherDisplay:10.37,2013-03-06 13:49:00,
2013-03-06 08:54:00,32.7,27.2,30.08,NE,37,5.0,10.4,80,0.00,CLR,,0.00,WeatherDisplay:10.37,2013-03-06 13:54:00,
2013-03-06 08:59:00,32.9,27.1,30.08,ENE,75,3.9,10.4,79,0.00,CLR,,0.00,WeatherDisplay:10.37,2013-03-06 13:59:00,
2013-03-06 09:04:00,33.0,27.2,30.08,ENE,69,3.4,10.4,79,0.00,CLR,,0.00,WeatherDisplay:10.37,2013-03-06 14:04:00,
2013-03-06 09:09:00,33.1,27.3,30.08,ENE,60,2.1,10.4,79,0.00,CLR,,0.00,WeatherDisplay:10.37,2013-03-06 14:09:00,
2013-03-06 09:14:00,33.2,27.4,30.09,ENE,57,2.9,10.4,79,0.00,CLR,,0.00,WeatherDisplay:10.37,2013-03-06 14:14:00,
2013-03-06 09:19:00,33.4,27.3,30.09,ENE,65,3.8,10.4,78,0.00,CLR,,0.00,WeatherDisplay:10.37,2013-03-06 14:19:00,
2013-03-06 09:24:00,33.6,27.5,30.09,ENE,57,2.0,10.4,78,0.00,CLR,,0.00,WeatherDisplay:10.37,2013-03-06 14:24:00,
2013-03-06 09:29:00,33.7,27.9,30.09,ENE,70,2.8,10.4,79,0.00,CLR,,0.00,WeatherDisplay:10.37,2013-03-06 14:29:00,
2013-03-06 09:34:00,33.8,28.0,30.09,East,79,2.7,10.4,79,0.00,CLR,,0.00,WeatherDisplay:10.37,2013-03-06 14:34:00,
2013-03-06 09:39:00,33.9,28.1,30.09,East,94,3.4,10.4,79,0.00,CLR,,0.00,WeatherDisplay:10.37,2013-03-06 14:39:00,
2013-03-06 09:44:00,34.0,28.2,30.09,NE,56,4.1,10.4,79,0.00,CLR,,0.00,WeatherDisplay:10.37,2013-03-06 14:44:00,
2013-03-06 09:49:00,34.2,28.1,30.09,ENE,73,2.6,10.4,78,0.00,CLR,,0.00,WeatherDisplay:10.37,2013-03-06 14:49:00,
2013-03-06 09:54:00,34.4,28.2,30.09,ENE,57,2.0,10.4,78,0.00,CLR,,0.00,WeatherDisplay:10.37,2013-03-06 14:54:00,
2013-03-06 09:59:00,34.6,28.1,30.09,ENE,65,5.1,10.4,77,0.00,CLR,,0.00,WeatherDisplay:10.37,2013-03-06 14:59:00,
2013-03-06 10:04:00,34.8,28.3,30.09,ENE,68,4.5,10.4,77,0.00,CLR,,0.00,WeatherDisplay:10.37,2013-03-06 15:04:00,
2013-03-06 10:09:00,35.1,28.3,30.09,NE,53,3.7,10.4,76,0.00,CLR,,0.00,WeatherDisplay:10.37,2013-03-06 15:09:00,
2013-03-06 10:14:00,35.5,28.4,30.09,East,94,2.4,10.4,75,0.00,CLR,,0.00,WeatherDisplay:10.37,2013-03-06 15:14:00,
2013-03-06 10:19:00,35.9,28.4,30.09,ENE,60,2.4,10.4,74,0.00,CLR,,0.00,WeatherDisplay:10.37,2013-03-06 15:19:00,
2013-03-06 10:24:00,36.2,28.7,30.09,North,5,3.2,10.4,74,0.00,CLR,,0.00,WeatherDisplay:10.37,2013-03-06 15:24:00,
2013-03-06 10:29:00,36.9,29.1,30.09,ENE,62,1.2,10.4,73,0.00,CLR,,0.00,WeatherDisplay:10.37,2013-03-06 15:29:00,
2013-03-06 10:34:00,37.2,29.3,30.09,ENE,58,2.6,10.4,73,0.00,CLR,,0.00,WeatherDisplay:10.37,2013-03-06 15:34:00,
2013-03-06 10:39:00,37.7,29.8,30.09,ENE,71,2.9,10.4,73,0.00,CLR,,0.00,WeatherDisplay:10.37,2013-03-06 15:39:00,
2013-03-06 10:44:00,38.3,29.7,30.10,East,101,5.2,10.4,71,0.00,CLR,,0.00,WeatherDisplay:10.37,2013-03-06 15:44:00,
2013-03-06 10:49:00,38.5,30.3,30.10,ENE,71,2.6,10.4,72,0.00,CLR,,0.00,WeatherDisplay:10.37,2013-03-06 15:49:00,
2013-03-06 10:54:00,39.0,30.4,30.09,ENE,60,1.4,10.4,71,0.00,CLR,,0.00,WeatherDisplay:10.37,2013-03-06 15:54:00,
2013-03-06 10:59:00,39.1,30.1,30.10,ENE,60,4.8,10.4,70,0.00,CLR,,0.00,WeatherDisplay:10.37,2013-03-06 15:59:00,
2013-03-06 11:04:00,39.7,30.4,30.09,ENE,57,2.6,10.4,69,0.01,RA,,0.01,WeatherDisplay:10.37,2013-03-06 16:04:00,
2013-03-06 11:09:00,40.4,30.7,30.09,ENE,77,3.6,10.4,68,0.01,RA,,0.01,WeatherDisplay:10.37,2013-03-06 16:09:00,
2013-03-06 11:14:00,40.4,31.0,30.10,NNE,33,2.2,10.4,69,0.01,,,0.01,WeatherDisplay:10.37,2013-03-06 16:14:00,
2013-03-06 11:19:00,40.4,31.4,30.09,East,98,1.7,10.4,70,0.02,RA,,0.02,WeatherDisplay:10.37,2013-03-06 16:19:00,
2013-03-06 11:24:00,40.4,30.3,30.09,NE,43,2.2,10.4,67,0.02,RA,,0.02,WeatherDisplay:10.37,2013-03-06 16:24:00,
2013-03-06 11:29:00,40.2,31.2,30.09,NW,312,4.4,10.4,70,0.02,,,0.02,WeatherDisplay:10.37,2013-03-06 16:29:00,
2013-03-06 11:34:00,39.7,31.1,30.10,ENE,66,1.8,10.4,71,0.02,,,0.02,WeatherDisplay:10.37,2013-03-06 16:34:00,
2013-03-06 11:39:00,39.5,31.6,30.10,NNE,20,2.2,10.4,73,0.02,,,0.02,WeatherDisplay:10.37,2013-03-06 16:39:00,
2013-03-06 11:44:00,39.2,31.6,30.10,ENE,65,3.0,10.4,74,0.03,RA,,0.03,WeatherDisplay:10.37,2013-03-06 16:44:00,
2013-03-06 11:49:00,39.1,31.8,30.10,NE,47,2.3,10.4,75,0.03,RA,,0.03,WeatherDisplay:10.37,2013-03-06 16:49:00,
2013-03-06 11:54:00,39.1,31.8,30.10,North,355,2.3,10.4,75,0.03,,,0.03,WeatherDisplay:10.37,2013-03-06 16:54:00,
2013-03-06 11:59:00,39.0,31.4,30.10,ENE,63,2.7,10.4,74,0.03,,,0.03,WeatherDisplay:10.37,2013-03-06 16:59:00,
2013-03-06 12:04:00,38.9,31.3,30.10,ENE,68,2.5,10.4,74,0.02,,,0.03,WeatherDisplay:10.37,2013-03-06 17:04:00,
2013-03-06 12:09:00,39.1,31.5,30.10,ENE,62,2.7,10.4,74,0.03,RA,,0.04,WeatherDisplay:10.37,2013-03-06 17:09:00,
2013-03-06 12:14:00,39.5,31.9,30.09,NE,48,2.4,10.4,74,0.03,RA,,0.04,WeatherDisplay:10.37,2013-03-06 17:14:00,
2013-03-06 12:19:00,39.3,31.7,30.10,ENE,72,4.2,10.4,74,0.02,,,0.04,WeatherDisplay:10.37,2013-03-06 17:19:00,
2013-03-06 12:24:00,39.2,31.9,30.10,East,80,3.9,10.4,75,0.02,,,0.04,WeatherDisplay:10.37,2013-03-06 17:24:00,
2013-03-06 12:29:00,39.1,32.2,30.10,NNE,23,3.6,10.4,76,0.02,,,0.04,WeatherDisplay:10.37,2013-03-06 17:29:00,
2013-03-06 12:34:00,38.8,32.2,30.10,North,352,2.6,10.4,77,0.02,,,0.04,WeatherDisplay:10.37,2013-03-06 17:34:00,
2013-03-06 12:39:00,38.8,32.2,30.10,East,81,5.1,10.4,77,0.02,,,0.04,WeatherDisplay:10.37,2013-03-06 17:39:00,
2013-03-06 12:44:00,38.7,32.4,30.10,ENE,59,5.5,10.4,78,0.02,RA,,0.05,WeatherDisplay:10.37,2013-03-06 17:44:00,
2013-03-06 12:49:00,38.7,32.4,30.10,NE,39,2.3,10.4,78,0.02,RA,,0.05,WeatherDisplay:10.37,2013-03-06 17:49:00,
2013-03-06 12:54:00,38.9,32.3,30.10,NNW,337,5.6,12.0,77,0.02,,,0.05,WeatherDisplay:10.37,2013-03-06 17:54:00,
2013-03-06 12:59:00,38.8,32.2,30.10,East,84,4.1,12.0,77,0.02,,,0.05,WeatherDisplay:10.37,2013-03-06 17:59:00,
2013-03-06 13:04:00,39.0,32.4,30.10,ENE,57,4.0,12.0,77,0.02,,,0.05,WeatherDisplay:10.37,2013-03-06 18:04:00,
2013-03-06 13:09:00,39.2,32.3,30.10,ENE,69,5.0,12.0,76,0.01,,,0.05,WeatherDisplay:10.37,2013-03-06 18:09:00,
2013-03-06 13:14:00,39.3,32.0,30.10,ENE,58,4.0,12.0,75,0.01,,,0.05,WeatherDisplay:10.37,2013-03-06 18:14:00,
2013-03-06 13:19:00,39.1,31.8,30.10,East,87,3.6,12.0,75,0.01,,,0.05,WeatherDisplay:10.37,2013-03-06 18:19:00,
2013-03-06 13:24:00,39.4,32.5,30.10,NW,326,2.0,12.0,76,0.01,,,0.05,WeatherDisplay:10.37,2013-03-06 18:24:00,
2013-03-06 13:29:00,39.4,32.5,30.10,NNE,20,2.4,12.0,76,0.01,,,0.05,WeatherDisplay:10.37,2013-03-06 18:29:00,
2013-03-06 13:34:00,39.2,32.3,30.10,NE,47,3.1,12.0,76,0.01,,,0.05,WeatherDisplay:10.37,2013-03-06 18:34:00,
2013-03-06 13:39:00,38.9,32.3,30.10,NE,47,3.4,12.0,77,0.01,,,0.05,WeatherDisplay:10.37,2013-03-06 18:39:00,
2013-03-06 13:44:00,38.6,32.3,30.10,East,91,3.7,12.0,78,0.00,,,0.05,WeatherDisplay:10.37,2013-03-06 18:44:00,
2013-03-06 13:49:00,38.5,32.6,30.10,NE,40,1.8,12.0,79,0.00,,,0.05,WeatherDisplay:10.37,2013-03-06 18:49:00,
2013-03-06 13:54:00,38.6,32.6,30.10,NNE,15,1.2,12.0,79,0.00,,,0.05,WeatherDisplay:10.37,2013-03-06 18:54:00,
2013-03-06 13:59:00,38.3,32.0,30.10,NE,54,3.8,12.0,78,0.00,,,0.05,WeatherDisplay:10.37,2013-03-06 18:59:00,
2013-03-06 14:04:00,37.9,32.0,30.10,ENE,60,3.6,12.0,79,0.00,,,0.05,WeatherDisplay:10.37,2013-03-06 19:04:00,
2013-03-06 14:09:00,37.8,32.2,30.10,ENE,57,4.6,12.0,80,0.00,,,0.05,WeatherDisplay:10.37,2013-03-06 19:09:00,
2013-03-06 14:14:00,37.7,32.1,30.10,ENE,75,3.7,12.0,80,0.00,,,0.05,WeatherDisplay:10.37,2013-03-06 19:14:00,
2013-03-06 14:19:00,37.7,32.1,30.10,NNW,343,3.5,12.0,80,0.00,,,0.05,WeatherDisplay:10.37,2013-03-06 19:19:00,
2013-03-06 14:24:00,37.6,32.0,30.10,NNW,347,4.1,12.0,80,0.00,,,0.05,WeatherDisplay:10.37,2013-03-06 19:24:00,
2013-03-06 14:29:00,37.6,32.3,30.10,NE,54,3.7,12.0,81,0.00,,,0.05,WeatherDisplay:10.37,2013-03-06 19:29:00,
2013-03-06 14:34:00,37.7,32.4,30.10,NE,48,1.6,12.0,81,0.00,,,0.05,WeatherDisplay:10.37,2013-03-06 19:34:00,
2013-03-06 14:39:00,37.7,32.4,30.10,ENE,62,3.3,12.0,81,0.00,,,0.05,WeatherDisplay:10.37,2013-03-06 19:39:00,
2013-03-06 14:44:00,37.8,32.5,30.10,NE,47,3.3,12.0,81,0.00,,,0.05,WeatherDisplay:10.37,2013-03-06 19:44:00,
2013-03-06 14:49:00,37.8,32.5,30.10,ENE,59,2.5,12.0,81,0.00,,,0.05,WeatherDisplay:10.37,2013-03-06 19:49:00,
2013-03-06 14:54:00,37.9,32.6,30.10,ENE,74,3.9,12.0,81,0.00,,,0.05,WeatherDisplay:10.37,2013-03-06 19:54:00,
2013-03-06 14:59:00,37.9,32.6,30.10,ENE,78,2.3,12.0,81,0.00,,,0.05,WeatherDisplay:10.37,2013-03-06 19:59:00,
2013-03-06 15:04:00,38.0,32.4,30.10,NE,47,2.7,12.0,80,0.00,,,0.05,WeatherDisplay:10.37,2013-03-06 20:04:00,
2013-03-06 15:09:00,38.0,32.4,30.10,NE,34,4.5,12.0,80,0.00,,,0.05,WeatherDisplay:10.37,2013-03-06 20:09:00,
2013-03-06 15:14:00,38.1,32.5,30.10,ENE,61,1.7,12.0,80,0.00,,,0.05,WeatherDisplay:10.37,2013-03-06 20:14:00,
2013-03-06 15:19:00,38.1,32.5,30.10,NE,46,2.3,12.0,80,0.00,,,0.05,WeatherDisplay:10.37,2013-03-06 20:19:00,
2013-03-06 15:24:00,38.1,32.2,30.10,ENE,64,4.1,12.0,79,0.00,,,0.05,WeatherDisplay:10.37,2013-03-06 20:24:00,
2013-03-06 15:29:00,38.1,32.2,30.11,NNW,330,1.4,12.0,79,0.00,,,0.05,WeatherDisplay:10.37,2013-03-06 20:29:00,
2013-03-06 15:34:00,38.0,32.1,30.11,NE,36,5.8,12.0,79,0.00,,,0.05,WeatherDisplay:10.37,2013-03-06 20:34:00,
2013-03-06 15:39:00,38.0,32.1,30.11,NE,43,3.2,12.0,79,0.00,,,0.05,WeatherDisplay:10.37,2013-03-06 20:39:00,
2013-03-06 15:44:00,38.0,32.4,30.11,NE,51,3.8,12.0,80,0.00,,,0.05,WeatherDisplay:10.37,2013-03-06 20:44:00,
2013-03-06 15:49:00,38.0,32.4,30.11,NNE,32,4.0,12.0,80,0.00,,,0.05,WeatherDisplay:10.37,2013-03-06 20:49:00,
2013-03-06 15:54:00,38.1,32.2,30.11,ENE,65,5.3,12.0,79,0.00,,,0.05,WeatherDisplay:10.37,2013-03-06 20:54:00,
2013-03-06 15:59:00,38.1,32.2,30.11,ENE,78,5.7,12.0,79,0.00,,,0.05,WeatherDisplay:10.37,2013-03-06 20:59:00,
2013-03-06 16:04:00,38.2,32.3,30.11,NE,51,1.6,12.0,79,0.00,,,0.05,WeatherDisplay:10.37,2013-03-06 21:04:00,
2013-03-06 16:09:00,38.3,32.4,30.11,NE,41,3.4,12.0,79,0.00,,,0.05,WeatherDisplay:10.37,2013-03-06 21:09:00,
2013-03-06 16:14:00,38.3,32.4,30.12,ENE,68,3.9,12.0,79,0.00,,,0.05,WeatherDisplay:10.37,2013-03-06 21:14:00,
2013-03-06 16:19:00,38.2,32.3,30.11,ENE,78,3.8,12.0,79,0.00,,,0.05,WeatherDisplay:10.37,2013-03-06 21:19:00,
2013-03-06 16:24:00,38.1,32.2,30.12,East,98,3.0,12.0,79,0.00,,,0.05,WeatherDisplay:10.37,2013-03-06 21:24:00,
2013-03-06 16:29:00,38.1,32.2,30.12,NE,43,1.3,12.0,79,0.00,,,0.05,WeatherDisplay:10.37,2013-03-06 21:29:00,
2013-03-06 16:34:00,38.0,32.4,30.12,ENE,68,2.2,12.0,80,0.00,,,0.05,WeatherDisplay:10.37,2013-03-06 21:34:00,
2013-03-06 16:39:00,37.8,32.2,30.12,NE,40,4.5,12.0,80,0.00,,,0.05,WeatherDisplay:10.37,2013-03-06 21:39:00,
2013-03-06 16:44:00,37.7,32.1,30.12,ENE,62,3.3,12.0,80,0.00,,,0.05,WeatherDisplay:10.37,2013-03-06 21:44:00,
2013-03-06 16:49:00,37.6,32.3,30.12,NE,51,1.1,12.0,81,0.00,,,0.05,WeatherDisplay:10.37,2013-03-06 21:49:00,
2013-03-06 16:54:00,37.5,32.2,30.12,ENE,64,3.9,12.0,81,0.00,,,0.05,WeatherDisplay:10.37,2013-03-06 21:54:00,
2013-03-06 16:59:00,37.4,32.1,30.13,ENE,58,5.5,13.0,81,0.00,,,0.05,WeatherDisplay:10.37,2013-03-06 21:59:00,
2013-03-06 17:04:00,37.4,32.1,30.13,ENE,71,3.1,13.0,81,0.00,,,0.05,WeatherDisplay:10.37,2013-03-06 22:04:00,
2013-03-06 17:09:00,37.3,32.0,30.13,NE,51,2.3,13.0,81,0.00,,,0.05,WeatherDisplay:10.37,2013-03-06 22:09:00,
2013-03-06 17:14:00,37.3,32.0,30.13,North,358,3.9,13.0,81,0.00,,,0.05,WeatherDisplay:10.37,2013-03-06 22:14:00,
2013-03-06 17:19:00,37.4,32.1,30.13,NE,43,2.8,13.0,81,0.00,,,0.05,WeatherDisplay:10.37,2013-03-06 22:19:00,
2013-03-06 17:24:00,37.3,32.0,30.13,NE,50,4.7,13.0,81,0.00,,,0.05,WeatherDisplay:10.37,2013-03-06 22:24:00,
2013-03-06 17:29:00,37.3,32.0,30.13,ENE,62,2.9,13.0,81,0.00,,,0.05,WeatherDisplay:10.37,2013-03-06 22:29:00,
2013-03-06 17:34:00,37.2,32.2,30.13,NE,48,4.1,13.0,82,0.00,,,0.05,WeatherDisplay:10.37,2013-03-06 22:34:00,
2013-03-06 17:39:00,37.1,32.1,30.14,ENE,59,2.1,13.0,82,0.00,,,0.05,WeatherDisplay:10.37,2013-03-06 22:39:00,
2013-03-06 17:44:00,36.9,31.9,30.14,ENE,68,2.6,13.0,82,0.00,,,0.05,WeatherDisplay:10.37,2013-03-06 22:44:00,
2013-03-06 17:49:00,37.0,32.0,30.14,NE,36,1.0,13.0,82,0.00,,,0.05,WeatherDisplay:10.37,2013-03-06 22:49:00,
2013-03-06 17:54:00,36.9,31.9,30.14,East,79,0.6,13.0,82,0.00,,,0.05,WeatherDisplay:10.37,2013-03-06 22:54:00,
2013-03-06 17:59:00,36.9,31.9,30.14,ENE,60,2.9,13.0,82,0.00,,,0.05,WeatherDisplay:10.37,2013-03-06 22:59:00,
2013-03-06 18:04:00,36.9,31.9,30.14,NE,55,3.0,13.0,82,0.00,,,0.05,WeatherDisplay:10.37,2013-03-06 23:04:00,
2013-03-06 18:09:00,36.8,31.8,30.14,ENE,58,3.7,13.0,82,0.00,,,0.05,WeatherDisplay:10.37,2013-03-06 23:09:00,
2013-03-06 18:14:00,36.8,31.8,30.14,ENE,60,1.4,13.0,82,0.00,,,0.05,WeatherDisplay:10.37,2013-03-06 23:14:00,
2013-03-06 18:19:00,36.7,31.7,30.14,NE,49,1.9,13.0,82,0.00,,,0.05,WeatherDisplay:10.37,2013-03-06 23:19:00,
2013-03-06 18:24:00,36.8,31.8,30.14,ENE,63,1.7,13.0,82,0.00,,,0.05,WeatherDisplay:10.37,2013-03-06 23:24:00,
2013-03-06 18:29:00,36.8,31.8,30.15,ENE,63,3.9,13.0,82,0.00,,,0.05,WeatherDisplay:10.37,2013-03-06 23:29:00,
2013-03-06 18:34:00,36.8,31.8,30.15,NE,51,2.0,13.0,82,0.00,,,0.05,WeatherDisplay:10.37,2013-03-06 23:34:00,
2013-03-06 18:39:00,36.8,31.8,30.15,North,360,3.9,13.0,82,0.00,,,0.05,WeatherDisplay:10.37,2013-03-06 23:39:00,
2013-03-06 18:44:00,36.8,31.8,30.15,NE,44,1.8,13.0,82,0.00,,,0.05,WeatherDisplay:10.37,2013-03-06 23:44:00,
2013-03-06 18:49:00,36.8,31.8,30.15,NNE,26,3.9,13.0,82,0.00,,,0.05,WeatherDisplay:10.37,2013-03-06 23:49:00,
2013-03-06 18:54:00,36.8,31.8,30.16,ENE,59,0.8,13.0,82,0.00,,,0.05,WeatherDisplay:10.37,2013-03-06 23:54:00,
2013-03-06 18:59:00,36.8,31.8,30.16,NE,47,2.9,13.0,82,0.00,,,0.05,WeatherDisplay:10.37,2013-03-06 23:59:00,
2013-03-06 19:04:00,36.8,32.1,30.16,ENE,58,3.0,13.0,83,0.00,CLR,,0.05,WeatherDisplay:10.37,2013-03-07 00:04:00,
2013-03-06 19:09:00,36.8,32.1,30.16,ENE,65,2.2,13.0,83,0.00,CLR,,0.05,WeatherDisplay:10.37,2013-03-07 00:09:00,
2013-03-06 19:14:00,36.8,32.1,30.16,ENE,61,0.5,13.0,83,0.00,CLR,,0.05,WeatherDisplay:10.37,2013-03-07 00:14:00,
2013-03-06 19:19:00,36.7,32.3,30.15,ENE,57,2.5,13.0,84,0.00,CLR,,0.05,WeatherDisplay:10.37,2013-03-07 00:19:00,
2013-03-06 19:24:00,36.7,32.3,30.16,ENE,73,0.6,13.0,84,0.00,CLR,,0.05,WeatherDisplay:10.37,2013-03-07 00:24:00,
2013-03-06 19:29:00,36.6,32.5,30.15,ENE,59,1.3,13.0,85,0.00,CLR,,0.05,WeatherDisplay:10.37,2013-03-07 00:29:00,
2013-03-06 19:34:00,36.5,32.4,30.15,NE,56,2.2,13.0,85,0.00,CLR,,0.05,WeatherDisplay:10.37,2013-03-07 00:34:00,
2013-03-06 19:39:00,36.5,32.4,30.16,ENE,77,0.8,13.0,85,0.00,CLR,,0.05,WeatherDisplay:10.37,2013-03-07 00:39:00,
2013-03-06 19:44:00,36.5,32.4,30.15,ENE,78,3.8,13.0,85,0.00,CLR,,0.05,WeatherDisplay:10.37,2013-03-07 00:44:00,
2013-03-06 19:49:00,36.6,32.5,30.15,NE,54,4.4,13.0,85,0.00,CLR,,0.05,WeatherDisplay:10.37,2013-03-07 00:49:00,
2013-03-06 19:54:00,36.5,32.4,30.15,NE,53,2.4,13.0,85,0.00,CLR,,0.05,WeatherDisplay:10.37,2013-03-07 00:54:00,
2013-03-06 19:59:00,36.5,32.4,30.15,ENE,57,3.7,13.0,85,0.00,CLR,,0.05,WeatherDisplay:10.37,2013-03-07 00:59:00,
2013-03-06 20:04:00,36.5,32.4,30.15,ENE,61,3.8,13.0,85,0.00,,,0.05,WeatherDisplay:10.37,2013-03-07 01:04:00,
2013-03-06 20:10:00,36.5,32.4,30.15,ENE,57,1.8,13.0,85,0.00,,,0.05,WeatherDisplay:10.37,2013-03-07 01:10:00,
2013-03-06 20:15:00,36.4,32.3,30.15,East,80,1.0,13.0,85,0.00,,,0.05,WeatherDisplay:10.37,2013-03-07 01:15:00,
2013-03-06 20:20:00,36.4,32.3,30.15,East,79,3.8,13.0,85,0.00,,,0.05,WeatherDisplay:10.37,2013-03-07 01:20:00,
2013-03-06 20:25:00,36.4,32.3,30.15,NE,44,3.6,13.0,85,0.00,,,0.05,WeatherDisplay:10.37,2013-03-07 01:25:00,
2013-03-06 20:30:00,36.5,32.1,30.15,NE,52,4.2,13.0,84,0.00,,,0.05,WeatherDisplay:10.37,2013-03-07 01:30:00,
2013-03-06 20:35:00,36.5,32.1,30.14,ENE,73,4.1,13.0,84,0.00,,,0.05,WeatherDisplay:10.37,2013-03-07 01:35:00,
2013-03-06 20:40:00,36.4,32.0,30.14,ENE,59,2.5,13.0,84,0.00,,,0.05,WeatherDisplay:10.37,2013-03-07 01:40:00,
2013-03-06 20:45:00,36.4,32.0,30.14,NE,54,3.8,13.0,84,0.00,,,0.05,WeatherDisplay:10.37,2013-03-07 01:45:00,
2013-03-06 20:50:00,36.4,32.0,30.14,North,1,3.4,13.0,84,0.00,,,0.05,WeatherDisplay:10.37,2013-03-07 01:50:00,
2013-03-06 20:55:00,36.3,32.2,30.14,ENE,72,2.4,13.0,85,0.00,,,0.05,WeatherDisplay:10.37,2013-03-07 01:55:00,
2013-03-06 21:00:00,36.3,32.2,30.15,East,92,1.3,13.0,85,0.00,,,0.05,WeatherDisplay:10.37,2013-03-07 02:00:00,
2013-03-06 21:05:00,36.2,32.1,30.14,ENE,77,4.0,13.0,85,0.00,,,0.05,WeatherDisplay:10.37,2013-03-07 02:05:00,
2013-03-06 21:10:00,36.2,32.1,30.15,ENE,72,2.0,13.0,85,0.00,,,0.05,WeatherDisplay:10.37,2013-03-07 02:10:00,
2013-03-06 21:15:00,36.1,32.0,30.14,ENE,57,4.5,13.0,85,0.00,,,0.05,WeatherDisplay:10.37,2013-03-07 02:15:00,
2013-03-06 21:20:00,36.1,32.0,30.14,NE,56,2.9,13.0,85,0.00,,,0.05,WeatherDisplay:10.37,2013-03-07 02:20:00,
2013-03-06 21:25:00,36.0,31.9,30.15,NE,37,2.6,13.0,85,0.00,,,0.05,WeatherDisplay:10.37,2013-03-07 02:25:00,
2013-03-06 21:30:00,36.0,31.9,30.15,ENE,57,2.2,13.0,85,0.00,,,0.05,WeatherDisplay:10.37,2013-03-07 02:30:00,
2013-03-06 21:35:00,36.0,31.9,30.14,NE,42,2.9,13.0,85,0.00,,,0.05,WeatherDisplay:10.37,2013-03-07 02:35:00,
2013-03-06 21:40:00,35.9,31.8,30.15,ENE,62,1.6,13.0,85,0.00,,,0.05,WeatherDisplay:10.37,2013-03-07 02:40:00,
2013-03-06 21:45:00,35.9,32.1,30.15,ENE,65,2.4,13.0,86,0.00,,,0.05,WeatherDisplay:10.37,2013-03-07 02:45:00,
2013-03-06 21:50:00,35.7,31.9,30.15,ENE,57,0.7,13.0,86,0.00,,,0.05,WeatherDisplay:10.37,2013-03-07 02:50:00,
2013-03-06 21:55:00,35.7,31.9,30.15,NE,37,2.2,13.0,86,0.00,,,0.05,WeatherDisplay:10.37,2013-03-07 02:55:00,
2013-03-06 22:00:00,35.7,31.9,30.15,ENE,57,0.7,13.0,86,0.00,,,0.05,WeatherDisplay:10.37,2013-03-07 03:00:00,
2013-03-06 22:05:00,35.6,31.8,30.15,ENE,67,0.7,13.0,86,0.00,,,0.05,WeatherDisplay:10.37,2013-03-07 03:05:00,
2013-03-06 22:10:00,35.6,31.8,30.15,East,81,0.5,13.0,86,0.00,,,0.05,WeatherDisplay:10.37,2013-03-07 03:10:00,
2013-03-06 22:15:00,35.6,31.8,30.15,ENE,71,1.0,13.0,86,0.00,,,0.05,WeatherDisplay:10.37,2013-03-07 03:15:00,
2013-03-06 22:21:00,35.5,31.7,30.15,ENE,65,0.9,13.0,86,0.00,,,0.05,WeatherDisplay:10.37,2013-03-07 03:21:00,
2013-03-06 22:26:00,35.5,31.7,30.15,ENE,62,0.0,13.0,86,0.00,,,0.05,WeatherDisplay:10.37,2013-03-07 03:26:00,
2013-03-06 22:31:00,35.3,31.5,30.15,ENE,63,0.0,13.0,86,0.00,,,0.05,WeatherDisplay:10.37,2013-03-07 03:31:00,
2013-03-06 22:36:00,35.2,31.7,30.15,ENE,62,0.0,13.0,87,0.00,,,0.05,WeatherDisplay:10.37,2013-03-07 03:36:00,
2013-03-06 22:41:00,35.0,31.5,30.15,ENE,63,0.0,13.0,87,0.00,,,0.05,WeatherDisplay:10.37,2013-03-07 03:41:00,
2013-03-06 22:46:00,35.0,31.5,30.15,ENE,62,0.0,13.0,87,0.00,,,0.05,WeatherDisplay:10.37,2013-03-07 03:46:00,
2013-03-06 22:51:00,34.8,31.3,30.14,ENE,63,0.0,13.0,87,0.00,,,0.05,WeatherDisplay:10.37,2013-03-07 03:51:00,
2013-03-06 22:56:00,34.7,31.5,30.14,ENE,63,0.0,13.0,88,0.00,,,0.05,WeatherDisplay:10.37,2013-03-07 03:56:00,
2013-03-06 23:01:00,34.4,31.2,30.14,ENE,62,0.0,13.0,88,0.00,,,0.05,WeatherDisplay:10.37,2013-03-07 04:01:00,
2013-03-06 23:06:00,34.3,31.1,30.15,ENE,62,0.0,13.0,88,0.00,,,0.05,WeatherDisplay:10.37,2013-03-07 04:06:00,
2013-03-06 23:11:00,34.1,31.2,30.15,ENE,62,0.0,13.0,89,0.00,,,0.05,WeatherDisplay:10.37,2013-03-07 04:11:00,
2013-03-06 23:16:00,34.0,31.1,30.15,ENE,63,0.0,13.0,89,0.00,,,0.05,WeatherDisplay:10.37,2013-03-07 04:16:00,
2013-03-06 23:21:00,33.8,30.9,30.14,ENE,62,0.0,13.0,89,0.00,,,0.05,WeatherDisplay:10.37,2013-03-07 04:21:00,
2013-03-06 23:26:00,33.7,31.1,30.14,ENE,63,0.0,13.0,90,0.00,,,0.05,WeatherDisplay:10.37,2013-03-07 04:26:00,
2013-03-06 23:31:00,33.6,31.0,30.14,ENE,63,0.0,13.0,90,0.00,,,0.05,WeatherDisplay:10.37,2013-03-07 04:31:00,
2013-03-06 23:36:00,33.6,31.0,30.14,ENE,63,0.0,13.0,90,0.00,,,0.05,WeatherDisplay:10.37,2013-03-07 04:36:00,
2013-03-06 23:41:00,33.5,30.9,30.14,ENE,63,0.0,13.0,90,0.00,,,0.05,WeatherDisplay:10.37,2013-03-07 04:41:00,
2013-03-06 23:46:00,33.5,30.9,30.14,ENE,63,0.0,13.0,90,0.00,,,0.05,WeatherDisplay:10.37,2013-03-07 04:46:00,
2013-03-06 23:51:00,33.5,30.9,30.15,ENE,63,0.0,0.0,90,0.00,CLR,,0.05,WeatherDisplay:10.37,2013-03-07 04:51:00,
2013-03-06 23:56:00,33.4,30.8,30.14,ENE,63,0.0,0.0,90,0.00,RA,,0.05,WeatherDisplay:10.37,2013-03-07 04:56:00,